EHI
0 0 0 0 0 0 0 0 0 0 0 0 0 0 1 4 6 13 25 33 33 30 31 37 44 48 46 43 42 39 32 22 17 16 13 10 6 3 1 0 0 0 0 0
0 0 0 0 0 0 0 0 0 0 0 0 0 0 1 3 6 12 19 27 31 31 32 37 44 50 51 51 49 43 34 25 19 16 13 9 5 3 1 0 0 0 0 0
0 0 0 0 0 0 0 0 0 0 0 0 0 0 0 2 6 9 12 19 27 31 33 37 45 52 55 57 56 47 37 29 22 18 15 10 5 2 0 0 0 0 0 0
0 0 0 0 0 0 0 0 0 0 0 0 0 0 0 2 7 9 11 17 23 27 31 37 45 53 56 57 56 48 40 34 28 24 21 15 6 1 0 0 0 0 0 0
0 0 0 0 0 0 0 0 0 0 0 0 0 0 0 2 7 10 13 16 19 23 29 36 41 46 50 53 52 48 45 39 33 29 25 18 9 3 1 2 3 2 1 0
0 0 0 0 0 0 0 0 0 0 0 0 0 0 0 1 4 7 12 16 18 21 26 31 33 37 41 45 45 45 43 38 32 28 25 19 12 7 5 6 6 5 3 2
0 0 0 0 0 0 0 0 0 0 0 0 0 0 0 0 1 3 8 15 20 23 26 28 28 29 33 35 36 37 36 31 29 26 23 19 14 9 7 7 7 6 4 2
0 0 0 0 0 0 0 0 0 0 0 0 0 0 0 0 0 1 5 12 19 23 26 28 26 24 24 27 29 29 27 25 25 24 21 16 12 7 5 5 5 5 2 1
0 0 0 0 0 0 0 0 0 0 0 0 0 0 0 0 0 1 3 9 16 20 22 23 23 20 17 19 23 24 22 20 20 20 18 12 8 5 3 2 3 2 1 0
0 0 0 0 0 0 0 0 0 0 0 0 0 0 0 0 0 1 3 7 12 14 15 15 15 15 14 13 16 18 18 17 15 14 12 9 5 3 1 0 1 1 0 0
0 0 0 0 0 0 0 0 0 0 0 0 0 0 0 0 0 1 3 5 8 11 10 9 10 11 12 10 9 11 12 13 11 9 8 6 3 2 1 1 0 0 0 0
0 0 0 0 0 0 0 0 0 0 0 0 0 0 0 0 0 1 3 5 8 9 8 8 9 9 8 7 5 5 6 8 9 8 6 4 3 2 2 1 0 0 0 0
0 0 0 0 0 0 0 0 0 0 0 0 0 0 0 0 0 1 3 6 8 7 7 7 8 7 5 4 3 2 3 5 6 7 5 3 2 2 2 1 0 0 0 0
0 0 0 0 0 0 0 0 0 0 0 0 0 0 0 0 1 2 4 6 7 6 5 4 5 4 2 2 2 2 3 3 3 3 2 1 1 1 1 0 0 0 0 0
0 0 0 0 0 0 1 1 0 0 0 0 0 0 0 0 1 3 4 6 7 6 4 2 3 2 1 1 2 3 3 3 2 1 0 0 0 0 0 0 0 0 0 0
0 0 0 0 0 0 1 1 0 0 0 0 0 0 1 1 1 2 3 4 6 5 3 2 2 1 0 1 4 5 4 3 2 1 0 0 0 0 0 0 0 0 0 0
0 0 0 0 0 0 1 1 0 0 0 0 0 1 2 2 1 1 2 3 4 3 1 1 1 1 0 2 5 6 4 3 2 1 0 0 0 0 0 0 0 0 0 0
0 0 0 0 0 0 0 0 0 0 0 0 1 3 3 3 2 2 2 2 1 1 0 0 0 0 1 2 4 5 4 2 1 0 0 0 0 0 0 0 0 0 0 0
0 0 0 0 0 0 0 0 0 0 0 0 2 3 3 2 2 2 2 2 1 0 0 0 0 0 1 2 3 3 2 1 0 0 0 0 0 0 0 0 0 0 0 0
0 0 0 0 0 0 0 0 0 0 0 0 1 2 2 1 1 1 1 1 1 0 0 0 0 0 0 1 1 1 0 0 0 0 0 0 1 1 1 1 1 1 0 0
0 0 0 0 0 0 0 0 0 0 0 0 0 1 2 2 1 1 0 0 0 0 0 0 0 0 0 0 0 0 0 0 0 0 1 1 2 2 2 2 2 2 1 1
0 0 0 0 0 0 0 0 0 0 0 0 0 0 1 2 2 1 0 0 0 0 0 0 0 0 0 0 0 0 0 0 0 0 1 2 3 3 3 3 3 3 3 2
0 0 1 1 0 0 0 0 0 0 0 0 0 0 0 1 1 1 0 0 0 0 0 0 0 0 0 0 0 0 0 0 1 1 1 1 2 3 3 3 3 3 3 3
0 0 1 1 1 1 0 0 0 0 1 1 0 0 0 0 0 0 0 0 0 0 0 0 0 1 1 0 0 0 0 1 2 1 0 0 1 1 2 3 3 3 3 3
0 0 1 1 0 0 0 0 0 0 1 1 0 0 0 0 0 0 0 0 0 0 0 0 0 1 1 0 0 0 1 2 2 1 0 0 0 0 1 2 2 2 2 2
0 0 0 0 0 0 0 0 0 0 1 1 0 0 0 0 0 0 0 0 0 0 0 0 0 1 1 0 0 0 1 2 1 0 0 0 0 0 0 1 1 1 1 1
Wind_Speed
5 5 6 9 8 6 4 3 3 5 2 1 3 5 5 4 6 8 9 10 11 12 8 9 11 12 12 12 12 13 11 10 9 7 7 6 6 5 4 5 6 7 7 7
4 5 8 6 6 4 3 2 3 4 1 1 2 4 4 3 7 8 10 11 11 8 7 10 12 13 14 13 13 12 12 11 10 8 7 5 5 4 4 4 5 7 7 7
7 6 7 7 6 6 5 5 4 3 4 3 1 5 4 2 1 3 5 7 8 10 11 12 13 13 13 14 14 13 13 11 10 8 5 4 3 2 3 4 5 6 7 7
5 5 5 6 6 7 5 6 6 3 1 3 1 2 5 2 2 3 4 6 8 8 9 10 11 12 13 13 12 11 11 10 9 9 9 9 7 6 7 5 5 5 6 7
7 6 7 7 8 9 7 3 4 2 3 0 1 2 7 2 2 5 5 6 7 8 9 10 11 11 10 11 11 10 10 10 10 10 11 11 8 6 4 4 6 6 5 6
6 4 7 9 6 8 5 5 6 5 5 0 3 3 6 3 5 5 4 5 6 6 6 7 7 8 8 9 9 10 10 10 11 12 11 11 10 8 7 7 7 6 4 4
2 4 4 4 4 3 5 6 4 3 3 5 2 3 8 5 5 5 4 4 4 5 6 7 8 9 9 10 10 10 11 10 11 12 12 11 11 11 11 9 9 7 5 5
5 5 6 6 8 7 7 10 9 6 5 4 1 4 6 3 3 2 1 2 3 4 5 6 7 7 8 9 9 10 10 9 10 11 11 10 9 7 7 8 7 8 6 6
8 6 4 6 6 11 8 5 7 8 3 1 3 4 6 2 2 1 2 3 4 4 5 5 6 7 8 9 9 9 9 9 10 10 10 9 9 8 8 8 7 5 5 5
9 4 3 2 5 2 8 10 7 7 7 2 2 3 4 4 3 1 1 3 3 4 4 4 5 6 7 7 7 7 8 8 8 9 9 8 8 8 8 7 8 7 7 6
6 5 2 2 5 7 5 5 6 5 6 7 3 6 5 5 4 3 3 3 3 3 3 3 3 4 5 6 6 6 7 7 7 7 7 7 7 7 7 8 9 8 7 7
5 6 2 3 3 4 6 8 9 7 4 5 5 6 3 3 2 2 2 2 3 3 2 2 3 4 4 5 5 6 6 7 7 7 7 7 7 7 8 8 8 8 8 8
6 7 3 3 3 2 4 4 5 7 7 5 6 6 1 1 1 0 1 2 3 3 3 2 2 3 4 4 5 5 5 6 6 6 7 7 7 8 8 8 8 8 8 8
6 5 7 9 7 4 3 3 5 7 6 6 6 5 2 1 0 1 1 2 3 3 3 3 2 2 3 3 4 4 4 5 5 6 6 7 7 8 8 7 7 8 8 8
5 4 3 3 3 4 3 4 6 5 8 9 8 6 5 3 2 1 2 3 4 4 2 2 2 1 1 2 2 3 3 4 5 5 6 6 6 6 6 6 6 7 7 8
4 4 4 2 2 5 4 3 4 4 5 5 6 3 1 1 2 3 3 4 3 2 2 1 1 1 1 1 2 2 3 4 4 5 6 5 6 6 6 6 6 6 6 6
2 4 4 2 2 4 2 0 3 3 2 6 7 5 4 3 3 3 2 3 3 1 1 1 1 0 1 2 2 3 3 3 4 4 5 5 6 7 7 7 6 7 6 6
4 4 4 4 4 4 4 1 4 6 4 2 3 5 5 5 4 4 3 3 3 3 3 2 1 1 1 1 1 1 2 4 4 4 4 5 5 6 6 6 7 7 6 6
4 6 4 4 4 2 1 1 3 5 2 1 5 6 6 6 5 5 6 5 4 4 3 2 2 1 1 1 0 1 2 3 3 4 3 4 5 6 7 7 7 6 6 6
4 4 5 5 5 5 5 1 1 5 1 1 4 7 6 5 4 1 4 5 5 5 5 4 3 3 3 2 0 2 2 2 3 3 3 3 3 5 6 7 6 5 5 6
3 4 3 4 3 3 2 2 1 5 6 4 5 5 4 3 4 4 4 5 5 5 5 5 4 4 3 2 2 1 1 1 2 1 1 2 3 3 4 4 4 4 5 5
3 4 3 4 4 5 2 1 4 4 3 6 5 4 6 8 7 6 6 6 6 6 6 6 5 5 5 4 2 1 1 2 1 0 1 2 2 2 2 3 3 4 5 5
1 3 4 3 3 1 1 1 0 3 6 5 5 6 9 9 7 6 6 6 5 6 6 6 5 5 6 5 4 3 3 3 2 1 0 1 1 1 1 2 3 3 3 3
0 1 3 3 1 2 3 3 4 6 7 7 7 7 8 9 7 6 5 5 5 5 5 5 6 6 6 6 5 4 4 3 2 1 1 1 2 2 2 1 2 2 3 3
0 2 2 3 3 3 4 5 7 9 10 10 9 8 8 9 7 6 5 5 4 4 4 5 6 6 7 6 6 5 5 3 3 2 2 2 2 2 3 3 3 2 1 1
1 2 3 4 4 4 3 3 7 9 9 9 10 9 7 7 7 7 6 5 5 5 5 6 7 7 7 7 7 7 6 5 4 3 3 2 2 3 3 4 4 8 7 8
Wind_Direction
147 125 186 195 184 178 169 175 247 258 267 296 263 272 277 203 189 190 192 194 200 205 189 170 172 171 171 176 178 179 179 176 172 174 177 178 182 178 181 189 185 182 178 173
105 216 206 176 172 175 189 231 268 297 337 179 274 291 286 202 201 198 197 198 200 191 172 174 172 174 179 181 182 180 183 181 181 185 182 177 166 174 185 189 184 181 180 177
170 215 177 164 171 183 209 206 224 253 339 8 31 323 310 312 218 193 196 198 201 192 186 182 180 180 180 184 185 186 185 184 183 176 157 143 125 126 169 188 187 187 185 184
202 225 167 170 187 170 231 217 203 210 107 308 54 282 286 294 289 221 214 204 202 194 186 182 180 180 183 186 182 180 180 180 180 174 175 173 179 185 193 186 184 180 183 183
214 194 177 191 198 173 209 189 176 169 155 360 0 178 282 338 276 255 236 218 207 196 184 181 181 180 180 175 173 173 175 178 180 182 188 183 187 186 173 165 174 180 182 186
209 203 187 198 198 180 161 83 60 53 82 207 230 170 271 253 241 263 252 223 202 185 173 167 166 163 168 167 169 169 176 184 184 188 189 189 186 179 172 180 185 184 182 185
222 241 220 175 152 144 126 103 51 19 28 244 246 185 249 257 250 242 243 227 187 166 158 157 163 169 171 173 177 175 181 188 187 189 190 193 189 184 186 187 189 183 181 188
177 247 223 186 170 166 169 145 156 176 202 256 278 225 255 273 276 269 202 139 136 146 151 164 172 175 176 178 177 177 185 191 188 191 192 190 186 186 190 189 185 187 189 190
171 233 252 207 174 145 142 171 159 127 141 136 269 282 301 327 348 18 100 124 142 156 160 170 172 172 176 178 179 181 188 193 191 191 185 186 187 189 191 186 185 187 186 185
154 201 265 221 109 90 145 145 112 125 144 192 280 274 257 278 286 292 172 160 161 157 163 171 174 175 175 175 175 171 182 189 189 184 185 190 190 192 188 180 185 190 191 186
142 159 297 69 160 166 118 111 112 117 147 149 193 262 235 225 233 229 220 177 167 169 169 179 177 166 159 158 167 172 176 178 181 185 189 188 188 187 184 187 192 190 186 185
147 130 204 257 254 173 150 157 145 146 177 157 157 254 288 225 232 215 207 155 144 157 169 170 162 152 159 161 167 177 177 182 185 182 183 188 185 183 188 196 195 188 186 188
136 122 111 351 350 67 113 140 141 122 116 144 155 244 318 18 39 56 119 106 118 129 141 148 149 162 169 173 176 183 184 185 181 176 182 187 187 188 193 197 194 191 190 187
121 120 156 184 204 176 147 144 143 123 138 171 198 208 262 287 304 23 87 106 114 123 137 141 149 161 171 179 180 180 182 177 176 175 181 191 192 193 194 191 189 190 189 187
107 135 160 182 178 146 137 151 154 147 164 165 194 191 220 215 208 166 90 90 92 88 90 122 141 146 156 171 178 170 176 171 171 176 187 199 192 190 187 185 189 190 189 193
71 136 127 81 95 110 87 87 128 122 132 132 131 193 223 104 102 86 81 86 80 76 78 90 102 100 154 196 189 167 175 176 169 185 195 190 185 188 189 186 185 185 188 190
63 115 118 161 182 92 83 133 140 126 126 148 169 193 140 115 99 83 71 83 89 73 61 71 61 136 234 230 215 203 195 180 180 195 195 188 188 192 192 188 184 187 186 184
126 103 112 125 110 155 229 311 118 110 79 93 125 129 135 125 99 65 50 61 49 31 31 26 3 333 267 238 216 183 184 186 188 201 203 193 189 192 189 186 192 192 187 191
142 128 110 114 127 144 227 153 137 124 81 55 130 123 119 120 90 52 35 49 48 32 19 3 344 334 343 358 167 151 178 184 184 197 207 206 198 197 193 196 197 192 187 194
74 95 109 116 129 189 212 238 151 108 124 183 140 139 138 123 108 83 37 45 40 27 18 12 8 21 23 359 29 156 174 183 201 208 212 210 205 203 202 201 195 184 186 195
69 66 100 122 136 233 249 302 115 161 206 162 145 143 130 110 129 119 75 49 35 24 13 11 24 29 15 9 55 109 135 224 245 222 191 194 198 202 200 191 183 179 183 185
144 132 143 131 148 224 311 79 162 189 132 124 117 114 110 109 106 100 82 57 38 28 20 18 26 24 15 21 49 52 350 322 338 95 171 198 196 200 194 175 176 173 176 180
130 167 157 159 185 263 24 90 63 137 122 111 113 116 118 112 106 92 75 61 42 30 22 19 25 28 22 19 27 18 350 351 358 51 169 198 166 158 151 165 174 165 168 174
57 75 104 101 98 81 62 60 72 94 99 101 110 113 109 108 104 91 76 61 46 32 25 21 28 31 23 17 23 17 4 7 33 63 72 127 133 115 103 115 143 157 171 180
185 101 105 110 130 95 61 76 92 93 95 96 93 95 104 107 100 93 80 60 45 36 31 37 38 33 23 19 20 18 17 24 42 53 60 98 110 118 99 80 64 103 89 171
190 169 162 178 179 144 132 115 106 103 101 105 103 93 86 97 99 91 81 65 51 41 38 43 41 36 26 24 23 17 17 29 46 54 54 67 90 100 106 103 81 63 72 69